QPF
0.00 0.00 0.00 0.00 0.00 0.00 0.00 0.00 0.00 0.00 0.00 0.01 0.00 0.00 0.00 0.01 0.01 0.01 0.01 0.01 0.02 0.02 0.03 0.02 0.02 0.02 0.02 0.03 0.04 0.04 0.04 0.04 0.04 0.03 0.04 0.04 0.03 0.03 0.04 0.04 0.03 0.02 0.02 0.03
0.00 0.00 0.00 0.00 0.00 0.00 0.00 0.00 0.00 0.00 0.00 0.00 0.00 0.00 0.01 0.01 0.01 0.01 0.01 0.01 0.02 0.02 0.02 0.01 0.01 0.02 0.02 0.02 0.03 0.03 0.03 0.02 0.02 0.02 0.03 0.03 0.03 0.03 0.03 0.03 0.03 0.03 0.03 0.03
0.00 0.00 0.00 0.00 0.00 0.00 0.00 0.00 0.00 0.01 0.01 0.00 0.00 0.02 0.03 0.02 0.01 0.01 0.01 0.01 0.01 0.01 0.01 0.01 0.01 0.01 0.02 0.02 0.02 0.02 0.02 0.02 0.02 0.02 0.03 0.04 0.04 0.03 0.02 0.02 0.03 0.03 0.03 0.04
0.00 0.01 0.01 0.01 0.00 0.00 0.00 0.00 0.00 0.00 0.00 0.01 0.01 0.01 0.02 0.01 0.01 0.01 0.01 0.02 0.01 0.01 0.00 0.00 0.01 0.01 0.01 0.01 0.01 0.01 0.02 0.02 0.03 0.04 0.03 0.02 0.02 0.02 0.02 0.02 0.02 0.02 0.02 0.02
0.00 0.00 0.01 0.01 0.01 0.01 0.01 0.01 0.01 0.00 0.01 0.01 0.01 0.01 0.01 0.00 0.01 0.01 0.01 0.01 0.01 0.01 0.01 0.00 0.01 0.01 0.01 0.01 0.01 0.02 0.02 0.03 0.02 0.02 0.01 0.01 0.02 0.02 0.02 0.02 0.03 0.02 0.03 0.03
0.00 0.00 0.00 0.00 0.01 0.01 0.01 0.01 0.01 0.01 0.01 0.01 0.01 0.01 0.01 0.01 0.01 0.01 0.01 0.01 0.01 0.01 0.01 0.01 0.01 0.00 0.01 0.01 0.01 0.01 0.01 0.01 0.01 0.01 0.01 0.01 0.01 0.02 0.02 0.03 0.03 0.03 0.04 0.04
0.00 0.00 0.01 0.01 0.01 0.01 0.01 0.02 0.01 0.01 0.01 0.02 0.02 0.02 0.02 0.02 0.02 0.02 0.02 0.01 0.02 0.01 0.01 0.00 0.00 0.01 0.01 0.01 0.01 0.01 0.00 0.00 0.00 0.00 0.01 0.01 0.02 0.02 0.03 0.03 0.04 0.04 0.03 0.03
0.01 0.01 0.02 0.01 0.01 0.02 0.02 0.01 0.01 0.01 0.01 0.01 0.01 0.01 0.02 0.02 0.02 0.02 0.03 0.03 0.03 0.02 0.01 0.01 0.01 0.01 0.01 0.01 0.01 0.01 0.01 0.00 0.00 0.01 0.01 0.01 0.02 0.02 0.03 0.03 0.03 0.03 0.02 0.02
0.01 0.02 0.02 0.02 0.02 0.02 0.01 0.01 0.01 0.01 0.01 0.01 0.01 0.01 0.02 0.02 0.02 0.02 0.03 0.03 0.03 0.03 0.02 0.01 0.01 0.01 0.01 0.01 0.01 0.01 0.01 0.01 0.02 0.02 0.02 0.02 0.03 0.03 0.03 0.03 0.02 0.02 0.02 0.02
0.01 0.01 0.01 0.01 0.01 0.01 0.02 0.01 0.01 0.01 0.01 0.01 0.01 0.01 0.01 0.02 0.02 0.03 0.02 0.02 0.02 0.03 0.02 0.02 0.02 0.02 0.01 0.01 0.01 0.01 0.02 0.02 0.02 0.04 0.04 0.04 0.04 0.04 0.04 0.04 0.03 0.03 0.02 0.01
0.00 0.01 0.01 0.01 0.01 0.01 0.01 0.01 0.01 0.01 0.01 0.01 0.01 0.02 0.02 0.02 0.02 0.02 0.01 0.01 0.02 0.02 0.02 0.02 0.02 0.01 0.02 0.01 0.01 0.01 0.01 0.01 0.01 0.02 0.03 0.05 0.04 0.03 0.02 0.03 0.02 0.02 0.02 0.02
0.00 0.00 0.01 0.00 0.00 0.01 0.01 0.01 0.01 0.01 0.01 0.01 0.01 0.01 0.01 0.01 0.01 0.01 0.01 0.02 0.02 0.02 0.01 0.01 0.01 0.01 0.01 0.01 0.01 0.01 0.01 0.01 0.01 0.01 0.01 0.01 0.01 0.01 0.01 0.02 0.03 0.03 0.02 0.02
0.01 0.01 0.01 0.00 0.00 0.00 0.01 0.01 0.00 0.01 0.02 0.02 0.02 0.02 0.01 0.01 0.01 0.02 0.02 0.02 0.02 0.02 0.02 0.01 0.01 0.01 0.01 0.01 0.01 0.01 0.01 0.01 0.01 0.01 0.01 0.01 0.01 0.01 0.01 0.02 0.01 0.01 0.02 0.01
0.01 0.01 0.02 0.01 0.01 0.00 0.00 0.00 0.01 0.01 0.02 0.02 0.02 0.03 0.04 0.02 0.02 0.02 0.02 0.02 0.02 0.03 0.02 0.02 0.02 0.01 0.01 0.01 0.02 0.02 0.02 0.02 0.02 0.01 0.01 0.01 0.01 0.02 0.02 0.02 0.02 0.02 0.02 0.02
0.00 0.01 0.01 0.02 0.01 0.01 0.01 0.01 0.01 0.01 0.01 0.02 0.03 0.04 0.05 0.05 0.04 0.03 0.03 0.03 0.03 0.03 0.02 0.02 0.02 0.01 0.01 0.02 0.03 0.03 0.03 0.02 0.01 0.01 0.01 0.01 0.01 0.01 0.02 0.02 0.01 0.01 0.01 0.02
0.01 0.01 0.01 0.01 0.01 0.01 0.01 0.01 0.02 0.02 0.02 0.02 0.02 0.02 0.04 0.05 0.06 0.06 0.05 0.04 0.03 0.04 0.03 0.02 0.02 0.01 0.01 0.02 0.02 0.02 0.02 0.02 0.02 0.01 0.01 0.01 0.01 0.01 0.02 0.02 0.01 0.01 0.01 0.01
0.01 0.01 0.01 0.01 0.01 0.02 0.03 0.03 0.03 0.02 0.02 0.03 0.03 0.03 0.03 0.03 0.05 0.08 0.09 0.06 0.04 0.03 0.03 0.02 0.02 0.01 0.01 0.02 0.02 0.02 0.02 0.03 0.02 0.02 0.01 0.01 0.01 0.02 0.02 0.02 0.02 0.01 0.01 0.01
0.01 0.01 0.00 0.01 0.01 0.02 0.03 0.02 0.02 0.03 0.03 0.03 0.03 0.02 0.03 0.03 0.04 0.05 0.06 0.08 0.07 0.04 0.03 0.02 0.02 0.02 0.01 0.01 0.02 0.02 0.02 0.02 0.02 0.03 0.03 0.03 0.02 0.02 0.03 0.04 0.04 0.03 0.02 0.02
0.01 0.01 0.01 0.01 0.01 0.02 0.02 0.02 0.02 0.02 0.02 0.03 0.03 0.03 0.03 0.04 0.06 0.06 0.05 0.05 0.06 0.05 0.04 0.03 0.03 0.02 0.01 0.01 0.02 0.01 0.01 0.02 0.02 0.03 0.03 0.03 0.03 0.02 0.02 0.03 0.06 0.06 0.04 0.03
0.02 0.03 0.02 0.02 0.02 0.02 0.02 0.02 0.02 0.02 0.02 0.02 0.03 0.04 0.04 0.05 0.07 0.08 0.06 0.04 0.04 0.03 0.03 0.03 0.02 0.02 0.02 0.02 0.02 0.01 0.01 0.02 0.03 0.03 0.03 0.03 0.04 0.04 0.02 0.02 0.03 0.04 0.06 0.07
0.02 0.02 0.02 0.03 0.04 0.03 0.02 0.02 0.02 0.02 0.02 0.02 0.03 0.05 0.05 0.04 0.05 0.06 0.07 0.05 0.03 0.03 0.02 0.02 0.02 0.02 0.02 0.01 0.01 0.01 0.01 0.02 0.03 0.03 0.04 0.03 0.04 0.03 0.03 0.03 0.04 0.05 0.06 0.06
0.02 0.01 0.02 0.03 0.03 0.03 0.03 0.03 0.03 0.02 0.02 0.02 0.03 0.03 0.03 0.03 0.03 0.03 0.05 0.05 0.05 0.05 0.04 0.02 0.02 0.02 0.01 0.01 0.01 0.01 0.02 0.04 0.04 0.04 0.04 0.04 0.04 0.04 0.05 0.05 0.06 0.05 0.05 0.06
0.01 0.01 0.02 0.03 0.03 0.02 0.02 0.03 0.02 0.02 0.02 0.02 0.02 0.02 0.02 0.02 0.02 0.03 0.05 0.07 0.05 0.06 0.07 0.06 0.03 0.02 0.01 0.01 0.01 0.02 0.03 0.03 0.03 0.04 0.05 0.06 0.07 0.07 0.07 0.07 0.06 0.06 0.06 0.06
0.02 0.01 0.02 0.02 0.02 0.02 0.02 0.02 0.02 0.02 0.01 0.01 0.01 0.02 0.02 0.02 0.03 0.03 0.03 0.07 0.11 0.10 0.11 0.10 0.06 0.03 0.02 0.01 0.01 0.02 0.03 0.04 0.04 0.06 0.07 0.09 0.09 0.09 0.09 0.08 0.08 0.07 0.06 0.04
0.02 0.02 0.02 0.02 0.02 0.01 0.01 0.02 0.02 0.02 0.01 0.01 0.01 0.02 0.03 0.02 0.03 0.03 0.02 0.03 0.07 0.10 0.12 0.11 0.06 0.04 0.03 0.02 0.02 0.02 0.03 0.05 0.06 0.07 0.08 0.09 0.09 0.08 0.08 0.07 0.05 0.04 0.03 0.02
0.01 0.01 0.01 0.01 0.01 0.01 0.01 0.02 0.02 0.02 0.02 0.01 0.02 0.02 0.03 0.03 0.03 0.03 0.03 0.03 0.03 0.05 0.08 0.10 0.06 0.05 0.04 0.04 0.03 0.03 0.04 0.05 0.05 0.06 0.06 0.06 0.06 0.05 0.04 0.04 0.04 0.03 0.03 0.02
0.01 0.01 0.01 0.02 0.02 0.01 0.01 0.02 0.02 0.04 0.05 0.03 0.02 0.02 0.03 0.04 0.05 0.04 0.03 0.03 0.02 0.02 0.03 0.03 0.04 0.03 0.03 0.02 0.03 0.03 0.03 0.03 0.04 0.04 0.03 0.02 0.02 0.02 0.02 0.02 0.03 0.03 0.03 0.03
MSLP
1005.85 1006.24 1006.70 1007.20 1007.67 1008.03 1008.23 1008.20 1007.91 1007.37 1006.61 1005.68 1004.67 1003.69 1002.80 1002.09 1001.60 1001.35 1001.32 1001.47 1001.77 1002.16 1002.59 1003.06 1003.55 1004.06 1004.63 1005.25 1005.95 1006.72 1007.54 1008.40 1009.25 1010.06 1010.80 1011.43 1011.95 1012.36 1012.65 1012.85 1012.96 1012.99 1012.95 1012.82
1005.52 1005.72 1005.97 1006.21 1006.41 1006.52 1006.51 1006.35 1006.01 1005.52 1004.88 1004.16 1003.41 1002.71 1002.10 1001.64 1001.35 1001.25 1001.32 1001.53 1001.86 1002.26 1002.72 1003.20 1003.73 1004.28 1004.89 1005.56 1006.29 1007.07 1007.90 1008.74 1009.57 1010.36 1011.07 1011.67 1012.17 1012.56 1012.84 1013.03 1013.13 1013.15 1013.09 1012.96
1005.23 1005.26 1005.29 1005.29 1005.25 1005.14 1004.94 1004.65 1004.27 1003.80 1003.28 1002.74 1002.21 1001.75 1001.38 1001.14 1001.03 1001.07 1001.24 1001.52 1001.88 1002.32 1002.80 1003.33 1003.89 1004.49 1005.14 1005.84 1006.59 1007.37 1008.19 1009.00 1009.80 1010.54 1011.21 1011.79 1012.27 1012.65 1012.93 1013.12 1013.23 1013.27 1013.23 1013.11
1005.03 1004.90 1004.73 1004.53 1004.28 1003.97 1003.62 1003.21 1002.78 1002.33 1001.89 1001.48 1001.12 1000.85 1000.67 1000.60 1000.65 1000.81 1001.07 1001.42 1001.84 1002.32 1002.85 1003.42 1004.03 1004.68 1005.36 1006.08 1006.84 1007.61 1008.40 1009.17 1009.92 1010.61 1011.24 1011.79 1012.26 1012.64 1012.94 1013.16 1013.30 1013.37 1013.36 1013.28
1004.96 1004.68 1004.36 1003.98 1003.55 1003.09 1002.59 1002.09 1001.61 1001.16 1000.76 1000.43 1000.19 1000.04 1000.00 1000.07 1000.23 1000.49 1000.83 1001.25 1001.74 1002.28 1002.86 1003.49 1004.15 1004.84 1005.55 1006.29 1007.05 1007.80 1008.55 1009.28 1009.97 1010.62 1011.21 1011.74 1012.20 1012.59 1012.92 1013.17 1013.36 1013.48 1013.51 1013.47
1005.05 1004.64 1004.17 1003.65 1003.09 1002.49 1001.89 1001.30 1000.76 1000.29 999.89 999.60 999.42 999.36 999.40 999.55 999.79 1000.13 1000.55 1001.04 1001.59 1002.19 1002.84 1003.53 1004.24 1004.98 1005.73 1006.49 1007.24 1007.98 1008.69 1009.37 1010.02 1010.63 1011.19 1011.70 1012.17 1012.58 1012.93 1013.22 1013.45 1013.61 1013.69 1013.68
1005.27 1004.75 1004.17 1003.54 1002.87 1002.17 1001.48 1000.81 1000.21 999.70 999.28 998.99 998.83 998.79 998.87 999.07 999.37 999.77 1000.24 1000.79 1001.41 1002.08 1002.80 1003.55 1004.33 1005.11 1005.90 1006.67 1007.43 1008.16 1008.85 1009.51 1010.12 1010.71 1011.25 1011.75 1012.22 1012.64 1013.02 1013.34 1013.60 1013.79 1013.89 1013.91
1005.59 1004.98 1004.31 1003.59 1002.84 1002.06 1001.30 1000.57 999.91 999.34 998.89 998.57 998.39 998.35 998.45 998.66 999.00 999.43 999.96 1000.57 1001.25 1001.98 1002.76 1003.57 1004.40 1005.24 1006.06 1006.86 1007.63 1008.36 1009.05 1009.70 1010.31 1010.88 1011.41 1011.92 1012.39 1012.82 1013.21 1013.54 1013.81 1014.01 1014.12 1014.14
1005.95 1005.26 1004.53 1003.75 1002.94 1002.11 1001.29 1000.50 999.79 999.17 998.67 998.31 998.11 998.05 998.14 998.36 998.72 999.18 999.75 1000.40 1001.13 1001.92 1002.75 1003.61 1004.49 1005.36 1006.21 1007.04 1007.83 1008.58 1009.28 1009.94 1010.56 1011.13 1011.68 1012.18 1012.65 1013.08 1013.46 1013.79 1014.05 1014.23 1014.33 1014.35
1006.28 1005.54 1004.77 1003.95 1003.10 1002.24 1001.38 1000.56 999.80 999.14 998.60 998.20 997.96 997.89 997.97 998.20 998.57 999.06 999.66 1000.35 1001.11 1001.94 1002.80 1003.69 1004.58 1005.48 1006.36 1007.21 1008.02 1008.79 1009.52 1010.20 1010.84 1011.43 1011.98 1012.50 1012.96 1013.38 1013.74 1014.04 1014.27 1014.43 1014.50 1014.50
1006.52 1005.75 1004.95 1004.13 1003.27 1002.39 1001.52 1000.67 999.89 999.20 998.64 998.22 997.97 997.89 997.98 998.22 998.61 999.12 999.74 1000.45 1001.23 1002.06 1002.93 1003.81 1004.71 1005.60 1006.48 1007.34 1008.16 1008.95 1009.70 1010.41 1011.08 1011.70 1012.27 1012.78 1013.24 1013.64 1013.98 1014.24 1014.43 1014.55 1014.60 1014.58
1006.59 1005.83 1005.05 1004.24 1003.39 1002.53 1001.67 1000.83 1000.05 999.36 998.79 998.38 998.13 998.07 998.17 998.44 998.85 999.39 1000.02 1000.73 1001.51 1002.32 1003.15 1004.01 1004.86 1005.72 1006.57 1007.41 1008.23 1009.03 1009.80 1010.53 1011.23 1011.87 1012.45 1012.97 1013.43 1013.80 1014.11 1014.33 1014.48 1014.57 1014.59 1014.56
1006.48 1005.76 1005.02 1004.26 1003.46 1002.64 1001.81 1001.00 1000.24 999.58 999.04 998.65 998.44 998.41 998.56 998.86 999.30 999.85 1000.49 1001.19 1001.93 1002.69 1003.47 1004.25 1005.04 1005.83 1006.62 1007.42 1008.21 1009.00 1009.78 1010.52 1011.24 1011.90 1012.50 1013.02 1013.47 1013.83 1014.10 1014.30 1014.42 1014.48 1014.49 1014.46
1006.17 1005.53 1004.87 1004.18 1003.46 1002.70 1001.93 1001.17 1000.47 999.86 999.37 999.04 998.88 998.90 999.09 999.44 999.91 1000.47 1001.11 1001.78 1002.47 1003.16 1003.85 1004.54 1005.22 1005.92 1006.63 1007.36 1008.10 1008.87 1009.63 1010.38 1011.11 1011.78 1012.39 1012.92 1013.37 1013.72 1013.97 1014.15 1014.25 1014.31 1014.31 1014.31
1005.66 1005.13 1004.58 1004.00 1003.38 1002.71 1002.02 1001.34 1000.71 1000.17 999.75 999.49 999.40 999.48 999.72 1000.11 1000.61 1001.18 1001.80 1002.43 1003.05 1003.65 1004.24 1004.81 1005.38 1005.97 1006.58 1007.23 1007.92 1008.64 1009.38 1010.13 1010.86 1011.54 1012.17 1012.70 1013.15 1013.50 1013.75 1013.92 1014.02 1014.08 1014.10 1014.12
1004.98 1004.59 1004.18 1003.73 1003.22 1002.66 1002.07 1001.49 1000.94 1000.48 1000.14 999.95 999.93 1000.07 1000.37 1000.79 1001.31 1001.88 1002.46 1003.04 1003.59 1004.10 1004.58 1005.04 1005.50 1005.97 1006.49 1007.05 1007.68 1008.36 1009.07 1009.81 1010.54 1011.23 1011.86 1012.41 1012.86 1013.22 1013.47 1013.65 1013.76 1013.83 1013.88 1013.93
1004.16 1003.93 1003.67 1003.36 1002.98 1002.54 1002.06 1001.58 1001.12 1000.75 1000.49 1000.36 1000.41 1000.60 1000.94 1001.38 1001.90 1002.45 1003.01 1003.53 1004.00 1004.43 1004.81 1005.17 1005.53 1005.91 1006.34 1006.84 1007.41 1008.05 1008.75 1009.47 1010.20 1010.90 1011.53 1012.09 1012.55 1012.91 1013.18 1013.37 1013.49 1013.58 1013.65 1013.73
1003.27 1003.19 1003.08 1002.91 1002.66 1002.33 1001.96 1001.57 1001.21 1000.92 1000.72 1000.66 1000.75 1000.99 1001.34 1001.79 1002.30 1002.83 1003.34 1003.81 1004.22 1004.58 1004.88 1005.17 1005.45 1005.77 1006.15 1006.60 1007.14 1007.76 1008.44 1009.15 1009.87 1010.57 1011.21 1011.78 1012.24 1012.61 1012.88 1013.08 1013.22 1013.32 1013.41 1013.51
1002.35 1002.41 1002.44 1002.38 1002.25 1002.03 1001.76 1001.46 1001.17 1000.94 1000.81 1000.80 1000.92 1001.17 1001.53 1001.96 1002.45 1002.94 1003.41 1003.84 1004.20 1004.51 1004.77 1005.01 1005.27 1005.56 1005.91 1006.35 1006.88 1007.49 1008.16 1008.87 1009.59 1010.28 1010.91 1011.47 1011.93 1012.29 1012.56 1012.76 1012.90 1013.01 1013.11 1013.22
1001.48 1001.65 1001.77 1001.82 1001.77 1001.64 1001.44 1001.21 1000.99 1000.82 1000.73 1000.74 1000.88 1001.13 1001.47 1001.88 1002.34 1002.79 1003.22 1003.61 1003.95 1004.23 1004.48 1004.73 1004.98 1005.28 1005.65 1006.10 1006.63 1007.24 1007.91 1008.61 1009.32 1009.99 1010.60 1011.14 1011.58 1011.92 1012.18 1012.37 1012.50 1012.60 1012.70 1012.80
1000.72 1000.95 1001.14 1001.24 1001.25 1001.17 1001.03 1000.85 1000.68 1000.55 1000.49 1000.51 1000.65 1000.88 1001.20 1001.58 1001.99 1002.41 1002.81 1003.18 1003.50 1003.79 1004.06 1004.33 1004.62 1004.96 1005.36 1005.84 1006.40 1007.01 1007.68 1008.36 1009.04 1009.68 1010.25 1010.75 1011.15 1011.46 1011.69 1011.85 1011.96 1012.05 1012.13 1012.23
1000.11 1000.36 1000.55 1000.67 1000.71 1000.66 1000.55 1000.41 1000.27 1000.17 1000.12 1000.15 1000.28 1000.49 1000.77 1001.11 1001.49 1001.87 1002.25 1002.61 1002.94 1003.25 1003.56 1003.87 1004.22 1004.61 1005.06 1005.58 1006.16 1006.78 1007.43 1008.09 1008.72 1009.31 1009.82 1010.26 1010.60 1010.86 1011.05 1011.18 1011.27 1011.34 1011.41 1011.49
999.68 999.89 1000.06 1000.16 1000.18 1000.14 1000.05 999.93 999.81 999.72 999.69 999.72 999.83 1000.02 1000.27 1000.57 1000.91 1001.27 1001.63 1001.98 1002.33 1002.68 1003.03 1003.40 1003.81 1004.27 1004.77 1005.32 1005.91 1006.53 1007.16 1007.77 1008.35 1008.86 1009.30 1009.66 1009.94 1010.14 1010.28 1010.37 1010.44 1010.49 1010.54 1010.61
999.41 999.55 999.66 999.71 999.70 999.65 999.56 999.45 999.35 999.27 999.25 999.28 999.38 999.55 999.77 1000.04 1000.35 1000.68 1001.03 1001.39 1001.76 1002.14 1002.54 1002.97 1003.44 1003.95 1004.49 1005.07 1005.67 1006.27 1006.86 1007.41 1007.92 1008.35 1008.71 1008.98 1009.19 1009.33 1009.42 1009.47 1009.52 1009.55 1009.60 1009.67
999.27 999.33 999.35 999.34 999.30 999.22 999.12 999.02 998.94 998.88 998.86 998.90 999.00 999.15 999.35 999.60 999.88 1000.20 1000.54 1000.90 1001.29 1001.71 1002.15 1002.63 1003.15 1003.69 1004.27 1004.86 1005.45 1006.02 1006.56 1007.05 1007.47 1007.82 1008.09 1008.29 1008.43 1008.51 1008.55 1008.58 1008.61 1008.65 1008.70 1008.78
999.23 999.19 999.14 999.07 998.98 998.89 998.79 998.70 998.63 998.59 998.59 998.64 998.74 998.88 999.07 999.30 999.57 999.87 1000.21 1000.58 1000.98 1001.42 1001.90 1002.41 1002.96 1003.53 1004.12 1004.71 1005.28 1005.82 1006.30 1006.73 1007.08 1007.35 1007.55 1007.68 1007.75 1007.79 1007.81 1007.82 1007.84 1007.88 1007.95 1008.05
999.25 999.13 999.02 998.90 998.78 998.68 998.58 998.51 998.47 998.45 998.48 998.54 998.65 998.79 998.98 999.20 999.46 999.75 1000.09 1000.46 1000.87 1001.33 1001.83 1002.36 1002.92 1003.51 1004.10 1004.67 1005.22 1005.72 1006.17 1006.53 1006.82 1007.04 1007.18 1007.26 1007.29 1007.30 1007.30 1007.31 1007.34 1007.39 1007.48 1007.60
Thickness
5748 5757 5758 5758 5759 5755 5748 5744 5737 5745 5749 5763 5769 5773 5776 5777 5776 5775 5774 5773 5773 5772 5771 5770 5767 5765 5763 5760 5758 5754 5750 5746 5744 5743 5741 5738 5736 5734 5732 5731 5729 5728 5726 5724
5741 5751 5753 5752 5757 5756 5753 5751 5749 5752 5753 5769 5771 5772 5771 5771 5771 5770 5769 5770 5770 5769 5768 5765 5763 5761 5758 5756 5753 5750 5746 5742 5740 5738 5735 5733 5731 5730 5728 5726 5725 5723 5721 5719
5720 5737 5741 5733 5750 5753 5753 5756 5753 5748 5758 5766 5764 5765 5766 5767 5766 5766 5766 5766 5765 5765 5763 5762 5760 5758 5754 5751 5748 5744 5742 5738 5735 5732 5729 5727 5727 5724 5722 5721 5719 5717 5715 5713
5708 5719 5709 5736 5757 5758 5754 5755 5756 5758 5760 5762 5762 5764 5765 5765 5763 5762 5763 5762 5761 5760 5760 5758 5756 5753 5750 5746 5742 5739 5735 5732 5730 5727 5724 5723 5721 5719 5717 5715 5713 5711 5710 5708
5694 5699 5711 5735 5749 5750 5745 5746 5755 5754 5755 5756 5758 5757 5757 5761 5761 5760 5760 5759 5758 5757 5755 5753 5750 5747 5743 5738 5735 5731 5728 5726 5724 5722 5719 5717 5714 5713 5711 5709 5707 5705 5704 5702
5690 5695 5697 5724 5747 5754 5746 5734 5750 5750 5748 5748 5748 5736 5742 5754 5756 5755 5754 5754 5752 5751 5748 5745 5742 5740 5735 5731 5727 5724 5722 5721 5719 5717 5714 5712 5709 5707 5705 5702 5701 5699 5697 5695
5686 5690 5703 5726 5739 5744 5720 5726 5745 5745 5744 5743 5740 5740 5745 5748 5748 5748 5747 5746 5745 5742 5739 5737 5735 5732 5727 5724 5721 5720 5718 5715 5712 5710 5708 5705 5703 5700 5698 5696 5693 5691 5689 5687
5677 5681 5694 5724 5727 5721 5723 5735 5738 5739 5739 5738 5737 5738 5738 5739 5738 5738 5737 5737 5736 5732 5730 5729 5727 5724 5719 5717 5717 5714 5711 5708 5705 5703 5701 5699 5695 5693 5690 5688 5685 5682 5680 5678
5683 5689 5706 5715 5718 5724 5725 5726 5730 5732 5734 5733 5730 5729 5730 5729 5728 5728 5727 5726 5726 5724 5721 5720 5719 5717 5712 5711 5709 5706 5703 5700 5698 5696 5693 5691 5688 5685 5682 5679 5676 5674 5671 5669
5682 5692 5701 5709 5714 5718 5720 5721 5725 5727 5727 5726 5723 5721 5720 5719 5718 5717 5717 5717 5716 5715 5712 5710 5710 5709 5707 5704 5701 5698 5695 5693 5690 5688 5685 5682 5679 5677 5674 5671 5668 5665 5663 5661
5676 5687 5695 5702 5705 5709 5713 5716 5717 5718 5719 5717 5715 5713 5711 5710 5709 5709 5708 5708 5707 5706 5704 5704 5703 5702 5700 5697 5694 5690 5687 5685 5683 5680 5677 5674 5671 5668 5666 5665 5661 5658 5656 5654
5672 5682 5683 5689 5698 5702 5704 5705 5706 5706 5706 5707 5707 5704 5703 5701 5701 5700 5700 5699 5699 5698 5697 5696 5695 5693 5692 5690 5686 5683 5679 5677 5675 5672 5669 5666 5663 5661 5660 5657 5655 5652 5649 5646
5677 5682 5683 5688 5692 5694 5694 5696 5697 5697 5697 5696 5697 5697 5695 5693 5692 5691 5691 5691 5691 5690 5689 5688 5687 5685 5684 5683 5680 5676 5673 5670 5667 5665 5662 5659 5656 5653 5650 5649 5647 5644 5642 5639
5674 5675 5676 5680 5682 5686 5687 5687 5688 5687 5688 5688 5688 5687 5686 5684 5684 5683 5683 5683 5683 5683 5681 5680 5679 5678 5677 5676 5673 5669 5666 5663 5660 5657 5654 5651 5648 5646 5643 5640 5638 5636 5634 5631
5669 5672 5672 5674 5675 5676 5678 5678 5676 5675 5676 5677 5677 5676 5676 5675 5675 5675 5676 5676 5675 5674 5673 5672 5671 5669 5669 5667 5665 5662 5659 5655 5652 5649 5646 5643 5641 5638 5636 5633 5631 5628 5626 5625
5662 5664 5666 5666 5666 5668 5669 5668 5667 5666 5666 5666 5666 5666 5667 5668 5667 5667 5668 5667 5666 5665 5664 5664 5663 5662 5661 5659 5656 5654 5651 5649 5646 5642 5639 5636 5633 5631 5628 5626 5623 5621 5619 5617
5652 5653 5656 5656 5658 5660 5660 5660 5660 5659 5659 5658 5658 5658 5659 5658 5658 5658 5659 5658 5657 5657 5656 5656 5655 5656 5654 5651 5648 5646 5644 5641 5639 5635 5632 5630 5627 5625 5622 5619 5617 5615 5613 5611
5651 5652 5654 5654 5653 5653 5653 5653 5652 5652 5651 5652 5653 5651 5650 5649 5648 5649 5649 5648 5648 5648 5648 5649 5649 5648 5646 5643 5641 5638 5636 5633 5631 5629 5626 5623 5620 5618 5615 5613 5611 5608 5606 5603
5646 5647 5648 5648 5648 5647 5645 5644 5645 5645 5645 5645 5644 5643 5642 5641 5641 5641 5640 5639 5639 5638 5639 5641 5640 5638 5637 5635 5634 5630 5628 5626 5623 5621 5619 5616 5614 5611 5608 5606 5604 5602 5600 5597
5641 5642 5642 5642 5642 5640 5638 5638 5638 5638 5638 5638 5637 5635 5635 5634 5633 5633 5632 5631 5630 5631 5632 5632 5631 5630 5628 5628 5626 5623 5620 5618 5616 5614 5611 5609 5608 5606 5603 5600 5598 5596 5593 5590
5635 5636 5636 5635 5634 5634 5633 5632 5631 5630 5631 5631 5630 5629 5628 5627 5626 5625 5624 5624 5625 5625 5625 5623 5622 5621 5620 5619 5618 5615 5613 5611 5609 5606 5604 5602 5600 5598 5595 5593 5591 5588 5587 5584
5629 5629 5629 5628 5627 5627 5626 5626 5625 5625 5624 5624 5624 5623 5621 5620 5619 5618 5618 5618 5619 5618 5617 5616 5615 5614 5613 5611 5610 5609 5607 5604 5601 5599 5597 5594 5592 5590 5588 5586 5583 5581 5579 5576
5622 5622 5622 5622 5622 5621 5621 5620 5620 5619 5619 5618 5617 5616 5615 5614 5613 5612 5612 5613 5612 5611 5610 5609 5608 5607 5606 5605 5603 5601 5598 5596 5594 5591 5589 5587 5585 5583 5580 5578 5576 5574 5572 5570
5616 5616 5616 5616 5615 5614 5613 5614 5614 5613 5613 5613 5612 5611 5610 5608 5607 5607 5606 5605 5604 5604 5603 5601 5600 5599 5598 5597 5595 5593 5591 5588 5586 5584 5582 5580 5579 5576 5574 5572 5570 5568 5565 5563
5610 5610 5609 5609 5608 5608 5608 5607 5607 5607 5607 5607 5606 5605 5604 5603 5602 5601 5600 5599 5598 5597 5596 5594 5592 5591 5591 5589 5588 5585 5583 5581 5578 5576 5575 5573 5571 5569 5567 5564 5563 5561 5559 5556
5605 5604 5604 5603 5603 5603 5603 5602 5602 5601 5600 5600 5599 5599 5598 5597 5596 5595 5594 5593 5591 5589 5588 5586 5586 5584 5582 5580 5578 5575 5574 5573 5571 5569 5568 5566 5564 5562 5559 5557 5555 5553 5551 5549
5601 5600 5599 5599 5599 5599 5598 5598 5597 5596 5595 5594 5593 5593 5592 5591 5590 5588 5587 5585 5584 5583 5581 5580 5578 5576 5574 5571 5569 5568 5566 5564 5563 5562 5560 5558 5556 5554 5552 5550 5547 5545 5543 5541